| time (UTC) | temp F | wind direction | speed MPH | gust MPH | rain 1hr in | rain 24hr in | rain mn in | humidity % | barometer mb |
| 20260507203056 | 54 | 221 | 1.0 | 11.0 | 0.00 | 0.46 | 0.24 | 87 | 1005.0 |
| 20260507202531 | 54 | 222 | 2.0 | 11.0 | 0.00 | 0.46 | 0.24 | 87 | 1004.8 |
| 20260507202008 | 54 | 240 | 2.0 | 10.0 | 0.00 | 0.46 | 0.24 | 87 | 1004.7 |
| 20260507201536 | 54 | 207 | 2.0 | 11.0 | 0.00 | 0.46 | 0.24 | 89 | 1004.8 |
| 20260507201003 | 54 | 225 | 6.0 | 11.0 | 0.00 | 0.46 | 0.24 | 88 | 1004.7 |
| 20260507200525 | 54 | 222 | 7.0 | 12.0 | 0.00 | 0.46 | 0.24 | 88 | 1004.9 |
| 20260507200008 | 54 | 221 | 8.0 | 12.0 | 0.00 | 0.46 | 0.24 | 88 | 1004.9 |
| 20260507195537 | 54 | 211 | 6.0 | 11.0 | 0.00 | 0.46 | 0.24 | 88 | 1004.9 |
| 20260507195057 | 54 | 213 | 5.0 | 9.0 | 0.00 | 0.46 | 0.24 | 87 | 1004.9 |
| 20260507194507 | 54 | 214 | 6.0 | 12.0 | 0.00 | 0.46 | 0.24 | 88 | 1005.0 |
| 20260507194026 | 54 | 236 | 6.0 | 12.0 | 0.00 | 0.46 | 0.24 | 88 | 1005.2 |
| 20260507193609 | 54 | 229 | 6.0 | 11.0 | 0.00 | 0.46 | 0.24 | 88 | 1005.2 |
| 20260507193034 | 54 | 212 | 6.0 | 10.0 | 0.00 | 0.46 | 0.24 | 88 | 1005.4 |
| 20260507192602 | 54 | 226 | 7.0 | 10.0 | 0.00 | 0.46 | 0.24 | 88 | 1005.3 |
| 20260507192012 | 53 | 215 | 3.0 | 10.0 | 0.00 | 0.46 | 0.24 | 87 | 1005.3 |
| 20260507191543 | 53 | 213 | 5.0 | 10.0 | 0.00 | 0.46 | 0.24 | 87 | 1005.3 |
| 20260507191006 | 54 | 212 | 6.0 | 10.0 | 0.00 | 0.46 | 0.24 | 87 | 1005.5 |
| 20260507190527 | 53 | 224 | 6.0 | 11.0 | 0.00 | 0.46 | 0.24 | 87 | 1005.6 |
| 20260507190004 | 54 | 198 | 6.0 | 11.0 | 0.00 | 0.46 | 0.24 | 87 | 1005.8 |
| 20260507185520 | 54 | 211 | 6.0 | 11.0 | 0.00 | 0.46 | 0.24 | 86 | 1005.7 |
| 20260507185040 | 54 | 216 | 5.0 | 11.0 | 0.00 | 0.46 | 0.24 | 84 | 1005.8 |
| 20260507184515 | 54 | 258 | 4.0 | 10.0 | 0.00 | 0.46 | 0.24 | 84 | 1005.8 |
| 20260507184035 | 54 | 208 | 3.0 | 8.0 | 0.00 | 0.46 | 0.24 | 84 | 1005.8 |
| 20260507183557 | 54 | 214 | 3.0 | 8.0 | 0.00 | 0.46 | 0.24 | 84 | 1005.9 |
| 20260507183114 | 53 | 223 | 4.0 | 10.0 | 0.00 | 0.46 | 0.24 | 83 | 1005.9 |
| 20260507182530 | 54 | 218 | 3.0 | 9.0 | 0.00 | 0.46 | 0.24 | 85 | 1005.9 |
| 20260507182111 | 54 | 223 | 4.0 | 8.0 | 0.00 | 0.46 | 0.24 | 84 | 1005.9 |
| 20260507181519 | 54 | 217 | 2.0 | 9.0 | 0.00 | 0.46 | 0.24 | 83 | 1006.0 |
| 20260507181038 | 54 | 224 | 4.0 | 9.0 | 0.00 | 0.46 | 0.24 | 83 | 1006.1 |
| 20260507180559 | 54 | 208 | 5.0 | 9.0 | 0.00 | 0.46 | 0.24 | 82 | 1006.0 |
| 20260507180014 | 56 | 210 | 5.0 | 10.0 | 0.00 | 0.46 | 0.24 | 80 | 1006.2 |
| 20260507175528 | 58 | 226 | 4.0 | 9.0 | 0.00 | 0.46 | 0.24 | 69 | 1006.2 |
| 20260507175049 | 59 | 212 | 0.0 | 1.0 | 0.00 | 0.46 | 0.24 | 66 | 1006.2 |
| 20260507174530 | 59 | 274 | 0.0 | 3.0 | 0.00 | 0.46 | 0.24 | 69 | 1006.3 |
| 20260507174042 | 58 | 202 | 0.0 | 3.0 | 0.00 | 0.46 | 0.24 | 68 | 1006.3 |
| 20260507173507 | 58 | 245 | 0.0 | 2.0 | 0.00 | 0.46 | 0.24 | 65 | 1006.3 |
| 20260507173101 | 58 | 136 | 0.0 | 2.0 | 0.00 | 0.46 | 0.24 | 68 | 1006.3 |
| 20260507172535 | 58 | 276 | 0.0 | 4.0 | 0.00 | 0.46 | 0.24 | 72 | 1006.3 |
| 20260507172014 | 57 | 200 | 0.0 | 1.0 | 0.00 | 0.46 | 0.24 | 73 | 1006.2 |
| 20260507171553 | 57 | 212 | 0.0 | 1.0 | 0.00 | 0.46 | 0.24 | 75 | 1006.2 |
| 20260507171029 | 56 | 234 | 0.0 | 3.0 | 0.00 | 0.46 | 0.24 | 78 | 1006.3 |
| 20260507170512 | 56 | 229 | 0.0 | 3.0 | 0.00 | 0.46 | 0.24 | 77 | 1006.5 |
| 20260507170050 | 56 | 245 | 0.0 | 3.0 | 0.00 | 0.46 | 0.24 | 77 | 1006.6 |
| 20260507165514 | 55 | 301 | 0.0 | 7.0 | 0.00 | 0.46 | 0.24 | 77 | 1006.6 |
| 20260507164510 | 55 | 276 | 0.0 | 1.0 | 0.00 | 0.46 | 0.24 | 78 | 1006.5 |
| 20260507164044 | 55 | 316 | 0.0 | 2.0 | 0.00 | 0.46 | 0.24 | 80 | 1006.6 |
| 20260507163508 | 55 | 283 | 0.0 | 2.0 | 0.00 | 0.46 | 0.24 | 80 | 1006.6 |
| 20260507163022 | 55 | 233 | 0.0 | 1.0 | 0.00 | 0.46 | 0.24 | 82 | 1006.6 |
| 20260507162556 | 54 | 285 | 0.0 | 3.0 | 0.00 | 0.46 | 0.24 | 83 | 1006.7 |
| 20260507162039 | 54 | 191 | 0.0 | 3.0 | 0.00 | 0.46 | 0.24 | 83 | 1006.7 |
| 20260507161607 | 54 | 224 | 0.0 | 2.0 | 0.00 | 0.46 | 0.24 | 83 | 1006.9 |
| 20260507161008 | 53 | 217 | 0.0 | 2.0 | 0.00 | 0.46 | 0.24 | 86 | 1006.8 |
| 20260507160533 | 53 | 321 | 0.0 | 1.0 | 0.00 | 0.46 | 0.24 | 89 | 1006.8 |
| 20260507160109 | 52 | 278 | 0.0 | 1.0 | 0.00 | 0.46 | 0.24 | 91 | 1006.8 |
| 20260507155543 | 52 | 260 | 0.0 | 4.0 | 0.00 | 0.46 | 0.24 | 91 | 1007.1 |
| 20260507155103 | 52 | 274 | 0.0 | 4.0 | 0.00 | 0.46 | 0.24 | 92 | 1007.0 |
| 20260507154513 | 51 | 89 | 0.0 | 4.0 | 0.00 | 0.46 | 0.24 | 92 | 1007.0 |
| 20260507154052 | 51 | 260 | 0.0 | 0.0 | 0.00 | 0.46 | 0.24 | 93 | 1007.2 |
| 20260507153502 | 50 | 246 | 0.0 | 2.0 | 0.00 | 0.46 | 0.24 | 93 | 1007.1 |
| 20260507153132 | 51 | 269 | 0.0 | 6.0 | 0.00 | 0.46 | 0.24 | 94 | 1007.2 |
| 20260507152017 | 50 | 30 | 0.0 | 0.0 | 0.01 | 0.46 | 0.24 | 94 | 1007.2 |
| 20260507151538 | 50 | 28 | 0.0 | 0.0 | 0.01 | 0.46 | 0.24 | 94 | 1007.1 |
| 20260507151056 | 50 | 234 | 0.0 | 0.0 | 0.01 | 0.46 | 0.24 | 95 | 1007.1 |
| 20260507150510 | 50 | 209 | 0.0 | 0.0 | 0.01 | 0.46 | 0.24 | 95 | 1007.1 |
| 20260507150029 | 50 | 198 | 0.0 | 0.0 | 0.01 | 0.46 | 0.24 | 95 | 1007.0 |
| 20260507145606 | 49 | 165 | 0.0 | 1.0 | 0.01 | 0.46 | 0.24 | 95 | 1007.0 |
| 20260507145016 | 49 | 273 | 0.0 | 2.0 | 0.01 | 0.46 | 0.24 | 95 | 1007.6 |
| 20260507144539 | 50 | 295 | 0.0 | 0.0 | 0.01 | 0.46 | 0.24 | 95 | 1007.5 |
| 20260507144059 | 49 | 274 | 0.0 | 0.0 | 0.01 | 0.46 | 0.24 | 95 | 1007.3 |
| 20260507143522 | 49 | 238 | 0.0 | 0.0 | 0.01 | 0.46 | 0.24 | 95 | 1007.2 |
| 20260507143005 | 49 | 9 | 0.0 | 0.0 | 0.00 | 0.45 | 0.23 | 95 | 1007.3 |
| 20260507142533 | 48 | 302 | 0.0 | 1.0 | 0.00 | 0.45 | 0.23 | 95 | 1007.5 |
| 20260507142001 | 48 | 226 | 0.0 | 0.0 | 0.00 | 0.45 | 0.23 | 95 | 1007.5 |
| 20260507141521 | 48 | 139 | 0.0 | 0.0 | 0.00 | 0.45 | 0.23 | 95 | 1007.4 |
| 20260507141043 | 48 | 297 | 0.0 | 0.0 | 0.00 | 0.45 | 0.23 | 95 | 1007.3 |
| 20260507140604 | 48 | 259 | 0.0 | 0.0 | 0.00 | 0.45 | 0.23 | 95 | 1007.5 |
| 20260507140035 | 47 | 230 | 0.0 | 0.0 | 0.00 | 0.45 | 0.23 | 95 | 1007.3 |
| 20260507135556 | 47 | 229 | 0.0 | 0.0 | 0.00 | 0.45 | 0.23 | 95 | 1007.3 |
| 20260507135012 | 47 | 281 | 0.0 | 0.0 | 0.00 | 0.45 | 0.23 | 95 | 1007.2 |
| 20260507134535 | 47 | 94 | 0.0 | 0.0 | 0.00 | 0.45 | 0.23 | 95 | 1007.0 |
| 20260507134056 | 47 | 55 | 0.0 | 0.0 | 0.00 | 0.45 | 0.23 | 95 | 1006.5 |
| 20260507133511 | 47 | 283 | 0.0 | 1.0 | 0.00 | 0.45 | 0.23 | 95 | 1006.7 |
| 20260507133034 | 47 | 75 | 0.0 | 1.0 | 0.00 | 0.45 | 0.23 | 95 | 1006.8 |
| 20260507132551 | 47 | 21 | 0.0 | 1.0 | 0.00 | 0.45 | 0.23 | 95 | 1006.9 |
| 20260507132002 | 47 | 52 | 0.0 | 0.0 | 0.01 | 0.45 | 0.23 | 95 | 1007.0 |
| 20260507131536 | 47 | 301 | 0.0 | 0.0 | 0.01 | 0.45 | 0.23 | 95 | 1007.2 |
| 20260507131055 | 47 | 229 | 0.0 | 0.0 | 0.01 | 0.45 | 0.23 | 95 | 1007.5 |
| 20260507130504 | 47 | 68 | 0.0 | 0.0 | 0.01 | 0.45 | 0.23 | 95 | 1007.3 |
| 20260507130038 | 47 | 207 | 0.0 | 0.0 | 0.02 | 0.45 | 0.23 | 95 | 1007.3 |
| 20260507125601 | 47 | 182 | 0.0 | 0.0 | 0.02 | 0.45 | 0.23 | 95 | 1007.1 |
| 20260507125034 | 47 | 259 | 0.0 | 0.0 | 0.03 | 0.45 | 0.23 | 95 | 1007.3 |
| 20260507124551 | 47 | 281 | 0.0 | 0.0 | 0.04 | 0.45 | 0.23 | 95 | 1007.2 |
| 20260507124034 | 47 | 332 | 0.0 | 0.0 | 0.04 | 0.45 | 0.23 | 95 | 1006.9 |
| 20260507123530 | 47 | 53 | 0.0 | 1.0 | 0.04 | 0.45 | 0.23 | 95 | 1006.7 |
| 20260507123109 | 47 | 141 | 0.0 | 0.0 | 0.04 | 0.45 | 0.23 | 95 | 1006.9 |
| 20260507122508 | 47 | 73 | 0.0 | 0.0 | 0.05 | 0.45 | 0.23 | 95 | 1007.0 |
| 20260507122033 | 47 | 81 | 0.0 | 1.0 | 0.04 | 0.44 | 0.22 | 95 | 1007.1 |
| 20260507121515 | 47 | 49 | 0.0 | 1.0 | 0.05 | 0.44 | 0.22 | 95 | 1007.2 |
| 20260507121004 | 48 | 267 | 0.0 | 2.0 | 0.05 | 0.44 | 0.22 | 96 | 1006.9 |
| 20260507120551 | 48 | 49 | 0.0 | 2.0 | 0.05 | 0.44 | 0.22 | 95 | 1006.9 |
| 20260507120010 | 48 | 184 | 0.0 | 0.0 | 0.04 | 0.43 | 0.21 | 96 | 1006.9 |
| 20260507115555 | 48 | 338 | 0.0 | 0.0 | 0.04 | 0.43 | 0.21 | 96 | 1007.6 |
| 20260507115004 | 48 | 44 | 0.0 | 1.0 | 0.03 | 0.42 | 0.20 | 96 | 1007.5 |
| 20260507114529 | 48 | 277 | 0.0 | 1.0 | 0.03 | 0.41 | 0.19 | 96 | 1007.3 |
| 20260507114054 | 48 | 283 | 0.0 | 3.0 | 0.03 | 0.41 | 0.19 | 96 | 1007.1 |
| 20260507113509 | 48 | 31 | 0.0 | 10.0 | 0.03 | 0.41 | 0.19 | 96 | 1006.5 |
| 20260507113044 | 48 | 115 | 0.0 | 10.0 | 0.03 | 0.41 | 0.19 | 96 | 1006.2 |
| 20260507112530 | 48 | 27 | 0.0 | 1.0 | 0.02 | 0.40 | 0.18 | 96 | 1006.2 |
| 20260507112050 | 48 | 301 | 0.0 | 1.0 | 0.02 | 0.40 | 0.18 | 96 | 1006.4 |
| 20260507111520 | 49 | 62 | 0.0 | 1.0 | 0.02 | 0.39 | 0.17 | 96 | 1006.5 |
| 20260507111053 | 49 | 25 | 0.0 | 0.0 | 0.04 | 0.39 | 0.17 | 96 | 1006.6 |
| 20260507110510 | 49 | 333 | 0.0 | 0.0 | 0.09 | 0.39 | 0.17 | 96 | 1006.8 |
| 20260507110039 | 49 | 212 | 0.0 | 0.0 | 0.10 | 0.39 | 0.17 | 96 | 1006.6 |
| 20260507105604 | 49 | 73 | 0.0 | 0.0 | 0.11 | 0.39 | 0.17 | 96 | 1006.5 |
| 20260507105033 | 49 | 84 | 0.0 | 0.0 | 0.13 | 0.39 | 0.17 | 96 | 1006.3 |
| 20260507104507 | 49 | 67 | 0.0 | 0.0 | 0.13 | 0.38 | 0.16 | 96 | 1006.4 |
| 20260507104004 | 49 | 68 | 0.0 | 0.0 | 0.15 | 0.38 | 0.16 | 96 | 1006.3 |
| 20260507103541 | 50 | 72 | 0.0 | 0.0 | 0.16 | 0.38 | 0.16 | 96 | 1006.2 |
| 20260507103025 | 50 | 262 | 0.0 | 0.0 | 0.16 | 0.38 | 0.16 | 96 | 1006.0 |
| 20260507102503 | 50 | 191 | 0.0 | 0.0 | 0.16 | 0.38 | 0.16 | 96 | 1006.1 |
| 20260507102028 | 50 | 148 | 0.0 | 4.0 | 0.16 | 0.38 | 0.16 | 96 | 1005.8 |
| 20260507101551 | 50 | 332 | 0.0 | 9.0 | 0.15 | 0.37 | 0.15 | 96 | 1005.8 |
| 20260507101009 | 50 | 56 | 1.0 | 9.0 | 0.12 | 0.34 | 0.12 | 96 | 1005.4 |
| 20260507100530 | 51 | 260 | 0.0 | 1.0 | 0.08 | 0.30 | 0.08 | 96 | 1006.0 |
| 20260507100100 | 51 | 341 | 0.0 | 3.0 | 0.07 | 0.28 | 0.07 | 96 | 1005.6 |
| 20260507095514 | 52 | 56 | 0.0 | 6.0 | 0.06 | 0.28 | 0.06 | 96 | 1005.1 |
| 20260507095056 | 53 | 16 | 0.0 | 6.0 | 0.04 | 0.26 | 0.04 | 96 | 1005.6 |
| 20260507094513 | 53 | 266 | 0.0 | 0.0 | 0.03 | 0.25 | 0.03 | 96 | 1005.5 |
| 20260507094059 | 53 | 29 | 0.0 | 0.0 | 0.01 | 0.23 | 0.01 | 96 | 1005.2 |
| 20260507093517 | 53 | 257 | 0.0 | 0.0 | 0.00 | 0.22 | 0.00 | 96 | 1005.2 |
| 20260507093050 | 53 | 272 | 0.0 | 0.0 | 0.00 | 0.22 | 0.00 | 96 | 1005.1 |
| 20260507092534 | 53 | 221 | 0.0 | 0.0 | 0.00 | 0.22 | 0.00 | 96 | 1005.5 |
| 20260507092023 | 53 | 233 | 0.0 | 0.0 | 0.00 | 0.22 | 0.00 | 96 | 1005.5 |
| 20260507091512 | 53 | 258 | 0.0 | 0.0 | 0.00 | 0.22 | 0.00 | 96 | 1005.8 |
| 20260507091037 | 53 | 236 | 0.0 | 0.0 | 0.00 | 0.22 | 0.00 | 96 | 1005.8 |
| 20260507090557 | 52 | 183 | 0.0 | 2.0 | 0.00 | 0.22 | 0.00 | 96 | 1005.4 |
| 20260507090009 | 52 | 211 | 0.0 | 1.0 | 0.00 | 0.22 | 0.00 | 96 | 1006.0 |
| 20260507085541 | 52 | 250 | 0.0 | 3.0 | 0.00 | 0.22 | 0.00 | 96 | 1005.8 |
| 20260507085007 | 52 | 229 | 0.0 | 4.0 | 0.00 | 0.22 | 0.00 | 96 | 1005.3 |
| 20260507084552 | 52 | 203 | 0.0 | 7.0 | 0.00 | 0.22 | 0.00 | 96 | 1005.4 |
| 20260507084108 | 52 | 212 | 0.0 | 9.0 | 0.00 | 0.22 | 0.00 | 96 | 1005.2 |
| 20260507083542 | 52 | 228 | 4.0 | 9.0 | 0.00 | 0.22 | 0.00 | 96 | 1005.2 |
| 20260507083003 | 53 | 220 | 5.0 | 10.0 | 0.00 | 0.22 | 0.00 | 96 | 1005.1 |
| 20260507082526 | 53 | 217 | 2.0 | 10.0 | 0.00 | 0.22 | 0.00 | 96 | 1005.0 |
| 20260507082053 | 53 | 214 | 6.0 | 10.0 | 0.00 | 0.22 | 0.00 | 96 | 1005.1 |
| 20260507081530 | 53 | 220 | 5.0 | 10.0 | 0.00 | 0.22 | 0.00 | 96 | 1005.1 |
| 20260507081054 | 53 | 228 | 2.0 | 10.0 | 0.00 | 0.22 | 0.00 | 96 | 1005.1 |
| 20260507080542 | 54 | 207 | 1.0 | 6.0 | 0.00 | 0.22 | 0.00 | 96 | 1005.2 |
| 20260507080038 | 53 | 222 | 0.0 | 5.0 | 0.00 | 0.22 | 0.00 | 96 | 1005.2 |
| 20260507075521 | 54 | 212 | 1.0 | 5.0 | 0.00 | 0.22 | 0.00 | 96 | 1005.0 |
| 20260507075014 | 54 | 212 | 0.0 | 4.0 | 0.00 | 0.22 | 0.00 | 96 | 1005.0 |
| 20260507074601 | 54 | 208 | 0.0 | 6.0 | 0.00 | 0.22 | 0.00 | 96 | 1005.3 |
| 20260507074018 | 53 | 215 | 0.0 | 8.0 | 0.00 | 0.22 | 0.00 | 96 | 1005.5 |
| 20260507073502 | 53 | 247 | 0.0 | 8.0 | 0.00 | 0.22 | 0.00 | 96 | 1005.6 |
| 20260507073042 | 53 | 231 | 1.0 | 8.0 | 0.00 | 0.22 | 0.00 | 96 | 1005.5 |
| 20260507072522 | 54 | 234 | 0.0 | 7.0 | 0.00 | 0.22 | 0.00 | 96 | 1005.4 |
| 20260507072106 | 54 | 199 | 0.0 | 6.0 | 0.00 | 0.22 | 0.00 | 96 | 1005.7 |
| 20260507071550 | 54 | 217 | 0.0 | 9.0 | 0.00 | 0.22 | 0.00 | 96 | 1005.8 |
| 20260507071031 | 54 | 214 | 0.0 | 6.0 | 0.00 | 0.22 | 0.00 | 96 | 1005.9 |
| 20260507070509 | 54 | 217 | 0.0 | 8.0 | 0.00 | 0.22 | 0.00 | 96 | 1005.7 |
| 20260507070033 | 54 | 231 | 1.0 | 8.0 | 0.00 | 0.22 | 0.00 | 96 | 1005.6 |
| 20260507065514 | 54 | 223 | 0.0 | 8.0 | 0.00 | 0.22 | 0.00 | 96 | 1005.5 |
| 20260507065048 | 54 | 218 | 1.0 | 9.0 | 0.00 | 0.22 | 0.00 | 96 | 1005.5 |
| 20260507064548 | 54 | 215 | 2.0 | 9.0 | 0.00 | 0.22 | 0.00 | 96 | 1005.6 |
| 20260507064013 | 54 | 220 | 1.0 | 8.0 | 0.00 | 0.22 | 0.00 | 96 | 1005.7 |
| 20260507063547 | 54 | 208 | 1.0 | 8.0 | 0.00 | 0.22 | 0.00 | 96 | 1005.5 |
| 20260507063009 | 54 | 235 | 1.0 | 9.0 | 0.00 | 0.22 | 0.00 | 96 | 1005.6 |
| 20260507062553 | 54 | 222 | 2.0 | 10.0 | 0.00 | 0.22 | 0.00 | 96 | 1005.6 |
| 20260507062031 | 54 | 240 | 2.0 | 12.0 | 0.00 | 0.22 | 0.00 | 96 | 1005.6 |
| 20260507061516 | 54 | 246 | 5.0 | 12.0 | 0.00 | 0.22 | 0.00 | 96 | 1005.6 |
| 20260507061056 | 54 | 243 | 3.0 | 9.0 | 0.00 | 0.22 | 0.00 | 96 | 1005.6 |
| 20260507060544 | 54 | 221 | 2.0 | 11.0 | 0.00 | 0.22 | 0.00 | 96 | 1005.8 |
| 20260507060018 | 54 | 220 | 2.0 | 12.0 | 0.00 | 0.22 | 0.00 | 96 | 1005.9 |
| 20260507055553 | 54 | 224 | 0.0 | 12.0 | 0.00 | 0.22 | 0.00 | 96 | 1005.8 |
| 20260507055007 | 54 | 234 | 1.0 | 12.0 | 0.00 | 0.22 | 0.00 | 96 | 1006.1 |
| 20260507054534 | 54 | 259 | 4.0 | 12.0 | 0.00 | 0.22 | 0.00 | 96 | 1006.0 |
| 20260507054010 | 54 | 220 | 2.0 | 11.0 | 0.00 | 0.22 | 0.00 | 96 | 1006.2 |
| 20260507053537 | 54 | 224 | 2.0 | 12.0 | 0.00 | 0.22 | 0.00 | 96 | 1006.4 |
| 20260507053001 | 54 | 191 | 3.0 | 12.0 | 0.00 | 0.22 | 0.00 | 96 | 1006.3 |
| 20260507052538 | 54 | 226 | 2.0 | 12.0 | 0.00 | 0.22 | 0.00 | 96 | 1006.5 |
| 20260507052015 | 54 | 252 | 5.0 | 13.0 | 0.00 | 0.22 | 0.00 | 96 | 1006.6 |
| 20260507051507 | 54 | 219 | 4.0 | 14.0 | 0.00 | 0.22 | 0.00 | 96 | 1006.5 |
| 20260507051045 | 54 | 217 | 3.0 | 14.0 | 0.00 | 0.22 | 0.00 | 96 | 1006.6 |
| 20260507050507 | 54 | 218 | 6.0 | 15.0 | 0.00 | 0.22 | 0.00 | 96 | 1006.5 |
| 20260507050056 | 54 | 229 | 7.0 | 15.0 | 0.00 | 0.22 | 0.00 | 96 | 1006.6 |
| 20260507045536 | 54 | 219 | 4.0 | 14.0 | 0.00 | 0.22 | 0.00 | 96 | 1006.6 |
| 20260507045019 | 54 | 223 | 6.0 | 16.0 | 0.00 | 0.22 | 0.00 | 96 | 1006.7 |
| 20260507044542 | 54 | 228 | 8.0 | 16.0 | 0.00 | 0.22 | 0.00 | 96 | 1006.5 |
| 20260507044105 | 55 | 236 | 8.0 | 15.0 | 0.00 | 0.22 | 0.00 | 96 | 1006.6 |
| 20260507043523 | 55 | 242 | 5.0 | 15.0 | 0.00 | 0.22 | 0.00 | 95 | 1006.8 |
| 20260507043056 | 55 | 250 | 5.0 | 14.0 | 0.00 | 0.22 | 0.00 | 95 | 1006.9 |
| 20260507042531 | 55 | 225 | 4.0 | 16.0 | 0.00 | 0.22 | 0.00 | 95 | 1006.9 |
| 20260507042001 | 55 | 233 | 4.0 | 16.0 | 0.00 | 0.22 | 0.00 | 95 | 1007.0 |
| 20260507041535 | 55 | 215 | 4.0 | 15.0 | 0.00 | 0.22 | 0.00 | 95 | 1007.0 |
| 20260507041032 | 55 | 226 | 3.0 | 12.0 | 0.00 | 0.22 | 0.00 | 95 | 1007.0 |
| 20260507040554 | 55 | 228 | 1.0 | 17.0 | 0.00 | 0.22 | 0.00 | 95 | 1006.8 |
| 20260507040018 | 55 | 224 | 6.0 | 23.0 | 0.00 | 0.22 | 0.00 | 95 | 1006.7 |
| 20260507035507 | 55 | 229 | 13.0 | 23.0 | 0.00 | 0.22 | 0.22 | 95 | 1006.8 |
| 20260507035058 | 55 | 230 | 6.0 | 21.0 | 0.00 | 0.22 | 0.22 | 95 | 1006.9 |
| 20260507034517 | 55 | 245 | 9.0 | 21.0 | 0.00 | 0.22 | 0.22 | 95 | 1007.0 |
| 20260507034100 | 55 | 238 | 13.0 | 21.0 | 0.00 | 0.22 | 0.22 | 95 | 1006.9 |
| 20260507033538 | 55 | 208 | 12.0 | 20.0 | 0.00 | 0.22 | 0.22 | 95 | 1007.0 |
| 20260507033058 | 55 | 223 | 10.0 | 20.0 | 0.00 | 0.22 | 0.22 | 95 | 1006.7 |
| 20260507032521 | 55 | 225 | 12.0 | 20.0 | 0.00 | 0.22 | 0.22 | 95 | 1006.7 |
| 20260507032012 | 55 | 222 | 12.0 | 20.0 | 0.00 | 0.22 | 0.22 | 95 | 1006.8 |
| 20260507031544 | 55 | 217 | 13.0 | 19.0 | 0.00 | 0.22 | 0.22 | 95 | 1006.7 |
| 20260507031038 | 55 | 226 | 10.0 | 19.0 | 0.00 | 0.22 | 0.22 | 95 | 1006.7 |
| 20260507030519 | 55 | 221 | 12.0 | 19.0 | 0.00 | 0.22 | 0.22 | 95 | 1006.7 |
| 20260507030028 | 55 | 215 | 10.0 | 21.0 | 0.00 | 0.22 | 0.22 | 95 | 1006.9 |
| 20260507025508 | 55 | 231 | 7.0 | 21.0 | 0.00 | 0.22 | 0.22 | 95 | 1007.1 |
| 20260507025039 | 55 | 229 | 14.0 | 21.0 | 0.00 | 0.22 | 0.22 | 95 | 1007.2 |
| 20260507024551 | 56 | 218 | 13.0 | 22.0 | 0.00 | 0.22 | 0.22 | 95 | 1007.2 |
| 20260507024038 | 56 | 227 | 14.0 | 22.0 | 0.00 | 0.22 | 0.22 | 95 | 1007.5 |
| 20260507023524 | 55 | 229 | 14.0 | 22.0 | 0.00 | 0.22 | 0.22 | 95 | 1007.5 |
| 20260507023056 | 56 | 224 | 14.0 | 23.0 | 0.00 | 0.22 | 0.22 | 95 | 1007.5 |
| 20260507022542 | 56 | 210 | 15.0 | 24.0 | 0.00 | 0.22 | 0.22 | 95 | 1007.5 |
| 20260507022031 | 56 | 229 | 14.0 | 24.0 | 0.00 | 0.22 | 0.22 | 95 | 1007.5 |
| 20260507021512 | 56 | 206 | 16.0 | 24.0 | 0.00 | 0.22 | 0.22 | 95 | 1007.5 |
| 20260507021055 | 56 | 229 | 16.0 | 25.0 | 0.00 | 0.22 | 0.22 | 95 | 1007.5 |
| 20260507020518 | 56 | 234 | 17.0 | 25.0 | 0.00 | 0.22 | 0.22 | 95 | 1007.6 |
| 20260507020108 | 56 | 226 | 17.0 | 23.0 | 0.00 | 0.22 | 0.22 | 95 | 1007.6 |
| 20260507015526 | 55 | 218 | 17.0 | 26.0 | 0.01 | 0.22 | 0.22 | 95 | 1007.7 |
| 20260507015005 | 56 | 227 | 18.0 | 25.0 | 0.02 | 0.22 | 0.22 | 95 | 1007.9 |
| 20260507014528 | 56 | 215 | 18.0 | 25.0 | 0.04 | 0.22 | 0.22 | 95 | 1007.9 |
| 20260507014009 | 56 | 221 | 18.0 | 25.0 | 0.05 | 0.22 | 0.22 | 95 | 1007.9 |
| 20260507013559 | 56 | 215 | 20.0 | 26.0 | 0.07 | 0.22 | 0.22 | 95 | 1007.9 |
| 20260507013048 | 56 | 212 | 19.0 | 26.0 | 0.08 | 0.22 | 0.22 | 95 | 1007.9 |
| 20260507012515 | 56 | 213 | 19.0 | 27.0 | 0.08 | 0.22 | 0.22 | 95 | 1007.9 |
| 20260507012004 | 57 | 200 | 20.0 | 30.0 | 0.09 | 0.22 | 0.22 | 95 | 1008.0 |
| 20260507011531 | 57 | 226 | 18.0 | 30.0 | 0.09 | 0.22 | 0.22 | 95 | 1008.0 |
| 20260507011051 | 57 | 229 | 20.0 | 29.0 | 0.09 | 0.22 | 0.22 | 95 | 1008.1 |
| 20260507010532 | 57 | 222 | 21.0 | 29.0 | 0.09 | 0.22 | 0.22 | 95 | 1008.0 |
| 20260507010013 | 57 | 228 | 19.0 | 28.0 | 0.10 | 0.22 | 0.22 | 95 | 1008.0 |
| 20260507005552 | 56 | 211 | 15.0 | 23.0 | 0.09 | 0.21 | 0.21 | 95 | 1008.0 |
| 20260507005006 | 56 | 214 | 13.0 | 22.0 | 0.08 | 0.20 | 0.20 | 95 | 1007.8 |
| 20260507004526 | 56 | 229 | 12.0 | 22.0 | 0.06 | 0.18 | 0.18 | 95 | 1007.7 |
| 20260507004055 | 56 | 212 | 11.0 | 21.0 | 0.05 | 0.17 | 0.17 | 95 | 1007.6 |
| 20260507003528 | 56 | 219 | 13.0 | 22.0 | 0.04 | 0.15 | 0.15 | 95 | 1007.7 |
| 20260507003006 | 56 | 214 | 13.0 | 20.0 | 0.05 | 0.14 | 0.14 | 95 | 1007.8 |
| 20260507002526 | 56 | 207 | 12.0 | 22.0 | 0.12 | 0.14 | 0.14 | 95 | 1007.9 |
| 20260507002021 | 56 | 221 | 13.0 | 22.0 | 0.12 | 0.13 | 0.13 | 95 | 1008.1 |
| 20260507001516 | 56 | 224 | 10.0 | 21.0 | 0.13 | 0.13 | 0.13 | 95 | 1008.1 |
| 20260507001105 | 55 | 231 | 12.0 | 21.0 | 0.13 | 0.13 | 0.13 | 94 | 1008.2 |
| 20260507000518 | 55 | 205 | 9.0 | 21.0 | 0.13 | 0.13 | 0.13 | 94 | 1008.2 |
| 20260507000004 | 55 | 209 | 13.0 | 21.0 | 0.12 | 0.12 | 0.12 | 94 | 1008.5 |
| 20260506235548 | 55 | 215 | 11.0 | 24.0 | 0.12 | 0.12 | 0.12 | 94 | 1008.5 |
| 20260506235031 | 56 | 212 | 13.0 | 24.0 | 0.12 | 0.12 | 0.12 | 94 | 1008.5 |
| 20260506234530 | 56 | 221 | 13.0 | 23.0 | 0.12 | 0.12 | 0.12 | 94 | 1008.4 |
| 20260506234012 | 56 | 224 | 13.0 | 20.0 | 0.11 | 0.11 | 0.11 | 94 | 1008.5 |
| 20260506233510 | 56 | 219 | 12.0 | 22.0 | 0.11 | 0.11 | 0.11 | 93 | 1008.6 |
| 20260506233047 | 56 | 207 | 14.0 | 22.0 | 0.09 | 0.09 | 0.09 | 93 | 1008.6 |
| 20260506232535 | 57 | 196 | 14.0 | 22.0 | 0.02 | 0.02 | 0.02 | 92 | 1008.7 |
| 20260506232027 | 57 | 221 | 11.0 | 22.0 | 0.01 | 0.01 | 0.01 | 91 | 1008.6 |
| 20260506231609 | 57 | 217 | 13.0 | 22.0 | 0.00 | 0.00 | 0.00 | 91 | 1008.7 |
| 20260506231013 | 57 | 207 | 12.0 | 20.0 | 0.00 | 0.00 | 0.00 | 91 | 1008.7 |
| 20260506230550 | 57 | 207 | 11.0 | 18.0 | 0.00 | 0.00 | 0.00 | 91 | 1008.7 |
| 20260506230002 | 57 | 213 | 10.0 | 17.0 | 0.00 | 0.00 | 0.00 | 90 | 1008.7 |
| 20260506225535 | 57 | 205 | 11.0 | 20.0 | 0.00 | 0.00 | 0.00 | 90 | 1008.8 |
| 20260506225105 | 57 | 221 | 13.0 | 20.0 | 0.00 | 0.00 | 0.00 | 90 | 1008.8 |
| 20260506224540 | 58 | 231 | 12.0 | 20.0 | 0.00 | 0.00 | 0.00 | 90 | 1008.8 |
| 20260506224012 | 57 | 239 | 12.0 | 19.0 | 0.00 | 0.00 | 0.00 | 90 | 1008.9 |
| 20260506223533 | 57 | 230 | 11.0 | 22.0 | 0.00 | 0.00 | 0.00 | 90 | 1008.8 |
| 20260506223100 | 57 | 210 | 11.0 | 23.0 | 0.00 | 0.00 | 0.00 | 90 | 1008.8 |
| 20260506222530 | 57 | 191 | 11.0 | 23.0 | 0.00 | 0.00 | 0.00 | 90 | 1008.8 |
| 20260506222024 | 57 | 206 | 11.0 | 21.0 | 0.00 | 0.00 | 0.00 | 90 | 1008.9 |
| 20260506221600 | 57 | 207 | 12.0 | 20.0 | 0.00 | 0.00 | 0.00 | 90 | 1009.1 |
| 20260506221019 | 57 | 238 | 13.0 | 20.0 | 0.00 | 0.00 | 0.00 | 90 | 1009.0 |
| 20260506220603 | 58 | 210 | 12.0 | 21.0 | 0.00 | 0.00 | 0.00 | 90 | 1009.0 |
| 20260506220040 | 58 | 226 | 12.0 | 21.0 | 0.00 | 0.00 | 0.00 | 90 | 1008.9 |
| 20260506215519 | 57 | 221 | 10.0 | 19.0 | 0.00 | 0.00 | 0.00 | 90 | 1008.8 |
| 20260506215008 | 57 | 221 | 10.0 | 19.0 | 0.00 | 0.00 | 0.00 | 90 | 1009.0 |
| 20260506214541 | 57 | 224 | 11.0 | 21.0 | 0.00 | 0.00 | 0.00 | 90 | 1009.1 |
| 20260506214013 | 57 | 200 | 11.0 | 21.0 | 0.00 | 0.00 | 0.00 | 90 | 1009.2 |
| 20260506213600 | 57 | 246 | 12.0 | 20.0 | 0.00 | 0.00 | 0.00 | 90 | 1009.1 |
| 20260506213027 | 57 | 229 | 11.0 | 20.0 | 0.00 | 0.00 | 0.00 | 90 | 1009.2 |
| 20260506212503 | 58 | 213 | 11.0 | 20.0 | 0.00 | 0.00 | 0.00 | 90 | 1009.3 |
| 20260506212053 | 58 | 208 | 10.0 | 23.0 | 0.00 | 0.00 | 0.00 | 90 | 1009.2 |
| 20260506211539 | 58 | 222 | 12.0 | 23.0 | 0.00 | 0.00 | 0.00 | 90 | 1009.2 |
| 20260506211029 | 58 | 217 | 10.0 | 21.0 | 0.00 | 0.00 | 0.00 | 90 | 1009.2 |
| 20260506210514 | 57 | 229 | 12.0 | 22.0 | 0.00 | 0.00 | 0.00 | 90 | 1009.2 |
| 20260506210012 | 57 | 219 | 12.0 | 25.0 | 0.00 | 0.00 | 0.00 | 90 | 1009.3 |
| 20260506205552 | 58 | 217 | 13.0 | 25.0 | 0.00 | 0.00 | 0.00 | 90 | 1009.4 |
| 20260506205006 | 58 | 221 | 14.0 | 22.0 | 0.00 | 0.00 | 0.00 | 89 | 1009.5 |
| 20260506204608 | 58 | 224 | 13.0 | 22.0 | 0.00 | 0.00 | 0.00 | 90 | 1009.5 |
| 20260506204040 | 58 | 199 | 12.0 | 21.0 | 0.00 | 0.00 | 0.00 | 90 | 1009.5 |
| 20260506203510 | 58 | 210 | 14.0 | 21.0 | 0.00 | 0.00 | 0.00 | 90 | 1009.7 |